When you browse on this site, cookies collect data to enhance your experience and personalize the content and advertising you see.
Visit our Privacy Policy to learn more. By continuing to use the site, you agree to this use of cookies and data.
  • In Deutschland
  • Länderverzeichnis
  • Für 7 Tage
  • Wassertemperatur
  • Wetterkarte
  • Widgets
  • user-avatar
    Anmelden

    Stündliche Wetter Klagenfurt

    Heute, 18 August, Sonntag

    Zeit Temperatur Niederschläge Wind Luftdruck Luftfeuchtigkeit
    00:00 +14°C° 0 mm 1 m/S 690 mmHg 88%
    01:00 +14°C° 0 mm 1 m/S 690 mmHg 90%
    02:00 +14°C° 0 mm 1 m/S 690 mmHg 90%
    03:00 +14°C° 0 mm 1 m/S 690 mmHg 90%
    04:00 +14°C° 0 mm 1 m/S 690 mmHg 90%
    05:00 +15°C° 0 mm 1 m/S 690 mmHg 86%
    06:00 +15°C° 0 mm 0 m/S 690 mmHg 83%
    07:00 +19°C° 0 mm 1 m/S 691 mmHg 78%
    08:00 +21°C° 0 mm 1 m/S 691 mmHg 71%
    09:00 +23°C° 0 mm 1 m/S 691 mmHg 64%
    10:00 +25°C° 0 mm 1 m/S 692 mmHg 56%
    11:00 +26°C° 0 mm 1 m/S 692 mmHg 54%
    12:00 +27°C° 0 mm 1 m/S 692 mmHg 52%
    13:00 +28°C° 0 mm 2 m/S 692 mmHg 49%
    14:00 +27°C° 0 mm 2 m/S 691 mmHg 51%
    15:00 +27°C° 0 mm 2 m/S 691 mmHg 53%
    16:00 +26°C° 0 mm 2 m/S 691 mmHg 55%
    17:00 +24°C° 0 mm 2 m/S 691 mmHg 65%
    18:00 +21°C° 0 mm 2 m/S 690 mmHg 76%
    19:00 +20°C° 0 mm 1 m/S 690 mmHg 86%
    20:00 +19°C° 0 mm 1 m/S 690 mmHg 88%
    21:00 +18°C° 0 mm 1 m/S 690 mmHg 90%
    22:00 +16°C° 0 mm 1 m/S 690 mmHg 93%
    23:00 +16°C° 0 mm 1 m/S 690 mmHg 93%

    Morgen, 19 August, Montag

    Zeit Temperatur Niederschläge Wind Luftdruck Luftfeuchtigkeit
    00:00 +15°C° 0 mm 1 m/S 690 mmHg 93%
    01:00 +15°C° 0 mm 1 m/S 690 mmHg 93%
    02:00 +15°C° 0 mm 1 m/S 690 mmHg 93%
    03:00 +15°C° 0 mm 1 m/S 690 mmHg 94%
    04:00 +15°C° 0 mm 1 m/S 690 mmHg 94%
    05:00 +16°C° 0 mm 1 m/S 690 mmHg 90%
    06:00 +16°C° 0 mm 0 m/S 691 mmHg 86%
    07:00 +17°C° 0 mm 0 m/S 691 mmHg 82%
    08:00 +20°C° 0 mm 0 m/S 692 mmHg 73%
    09:00 +22°C° 0 mm 0 m/S 692 mmHg 65%
    10:00 +26°C° 0 mm 1 m/S 693 mmHg 57%
    11:00 +27°C° 0 mm 1 m/S 693 mmHg 55%
    12:00 +27°C° 0 mm 1 m/S 693 mmHg 53%
    13:00 +28°C° 0 mm 1 m/S 693 mmHg 51%
    14:00 +28°C° 0.2 mm 1 m/S 693 mmHg 53%
    15:00 +27°C° 0.2 mm 1 m/S 693 mmHg 55%
    16:00 +27°C° 0.2 mm 1 m/S 693 mmHg 58%
    17:00 +25°C° 0.2 mm 1 m/S 693 mmHg 66%
    18:00 +23°C° 0.2 mm 1 m/S 693 mmHg 75%
    19:00 +19°C° 0.2 mm 0 m/S 692 mmHg 84%
    20:00 +18°C° 0 mm 0 m/S 693 mmHg 84%
    21:00 +19°C° 0 mm 1 m/S 693 mmHg 85%
    22:00 +19°C° 0 mm 1 m/S 693 mmHg 86%
    23:00 +16°C° 0 mm 0 m/S 693 mmHg 87%

    übermorgen, 20 August, Dienstag

    Zeit Temperatur Niederschläge Wind Luftdruck Luftfeuchtigkeit
    00:00 +16°C° 0 mm 0 m/S 693 mmHg 89%
    01:00 +16°C° 0 mm 0 m/S 693 mmHg 91%
    02:00 +15°C° 0 mm 0 m/S 693 mmHg 91%
    03:00 +15°C° 0 mm 0 m/S 693 mmHg 91%
    04:00 +15°C° 0 mm 0 m/S 692 mmHg 91%
    05:00 +16°C° 0 mm 0 m/S 693 mmHg 89%
    06:00 +17°C° 0 mm 0 m/S 693 mmHg 87%
    07:00 +17°C° 0 mm 0 m/S 693 mmHg 85%
    08:00 +19°C° 0 mm 0 m/S 693 mmHg 77%
    09:00 +24°C° 0 mm 1 m/S 694 mmHg 68%
    10:00 +26°C° 0 mm 1 m/S 694 mmHg 59%
    11:00 +27°C° 0 mm 1 m/S 694 mmHg 55%
    12:00 +28°C° 0 mm 1 m/S 694 mmHg 51%
    13:00 +29°C° 0 mm 1 m/S 694 mmHg 47%
    14:00 +29°C° 0 mm 1 m/S 694 mmHg 47%
    15:00 +29°C° 0 mm 1 m/S 693 mmHg 48%
    16:00 +29°C° 0 mm 2 m/S 693 mmHg 48%
    17:00 +26°C° 0 mm 1 m/S 692 mmHg 58%
    18:00 +24°C° 0 mm 1 m/S 692 mmHg 67%
    19:00 +22°C° 0 mm 1 m/S 692 mmHg 76%
    20:00 +21°C° 0 mm 1 m/S 692 mmHg 76%
    21:00 +20°C° 0 mm 1 m/S 692 mmHg 75%
    22:00 +20°C° 0 mm 1 m/S 692 mmHg 75%
    23:00 +19°C° 0 mm 1 m/S 692 mmHg 76%

    21 August, Mittwoch

    Zeit Temperatur Niederschläge Wind Luftdruck Luftfeuchtigkeit
    00:00 +19°C° 0 mm 1 m/S 692 mmHg 76%
    01:00 +18°C° 0 mm 1 m/S 692 mmHg 77%
    02:00 +18°C° 0 mm 1 m/S 692 mmHg 77%
    03:00 +18°C° 0 mm 1 m/S 692 mmHg 77%
    04:00 +16°C° 0 mm 1 m/S 692 mmHg 77%
    05:00 +18°C° 0 mm 1 m/S 693 mmHg 77%
    06:00 +19°C° 0 mm 1 m/S 693 mmHg 77%
    07:00 +20°C° 0 mm 1 m/S 694 mmHg 77%
    08:00 +21°C° 0.3 mm 1 m/S 694 mmHg 77%
    09:00 +22°C° 0.3 mm 1 m/S 695 mmHg 77%
    10:00 +23°C° 0.3 mm 1 m/S 695 mmHg 77%
    11:00 +23°C° 0.8 mm 1 m/S 695 mmHg 77%
    12:00 +23°C° 0.8 mm 1 m/S 695 mmHg 78%
    13:00 +23°C° 0.8 mm 1 m/S 695 mmHg 79%
    14:00 +23°C° 0.8 mm 1 m/S 695 mmHg 80%
    15:00 +23°C° 0.8 mm 1 m/S 695 mmHg 82%
    16:00 +22°C° 0.8 mm 1 m/S 695 mmHg 84%
    17:00 +21°C° 0.4 mm 1 m/S 694 mmHg 87%
    18:00 +20°C° 0.4 mm 1 m/S 694 mmHg 89%
    19:00 +19°C° 0.4 mm 1 m/S 694 mmHg 92%
    20:00 +19°C° 0.2 mm 1 m/S 695 mmHg 92%
    21:00 +17°C° 0.2 mm 0 m/S 695 mmHg 92%
    22:00 +16°C° 0.2 mm 0 m/S 695 mmHg 92%
    23:00 +16°C° 0 mm 0 m/S 695 mmHg 93%

    22 August, Donnerstag

    Zeit Temperatur Niederschläge Wind Luftdruck Luftfeuchtigkeit
    00:00 +16°C° 0 mm 0 m/S 695 mmHg 93%
    01:00 +15°C° 0 mm 0 m/S 694 mmHg 94%
    02:00 +15°C° 0 mm 0 m/S 694 mmHg 95%
    03:00 +15°C° 0 mm 0 m/S 694 mmHg 95%
    04:00 +16°C° 0 mm 1 m/S 694 mmHg 96%
    05:00 +16°C° 0 mm 1 m/S 694 mmHg 95%
    06:00 +16°C° 0 mm 1 m/S 694 mmHg 94%
    07:00 +18°C° 0 mm 1 m/S 694 mmHg 93%
    08:00 +19°C° 0 mm 1 m/S 695 mmHg 88%
    09:00 +20°C° 0 mm 1 m/S 695 mmHg 82%
    10:00 +21°C° 0 mm 1 m/S 695 mmHg 77%
    11:00 +22°C° 0 mm 1 m/S 695 mmHg 73%
    12:00 +23°C° 0 mm 1 m/S 695 mmHg 68%
    13:00 +24°C° 0 mm 1 m/S 695 mmHg 64%
    14:00 +24°C° 0 mm 1 m/S 695 mmHg 65%
    15:00 +24°C° 0 mm 1 m/S 695 mmHg 65%
    16:00 +24°C° 0 mm 1 m/S 695 mmHg 66%
    17:00 +22°C° 0.1 mm 1 m/S 695 mmHg 73%
    18:00 +21°C° 0.1 mm 1 m/S 694 mmHg 80%
    19:00 +19°C° 0.1 mm 1 m/S 694 mmHg 87%
    20:00 +19°C° 0.4 mm 1 m/S 695 mmHg 90%
    21:00 +18°C° 0.4 mm 1 m/S 695 mmHg 92%
    22:00 +16°C° 0.4 mm 1 m/S 695 mmHg 94%
    23:00 +16°C° 0 mm 1 m/S 695 mmHg 94%

    23 August, Freitag

    Zeit Temperatur Niederschläge Wind Luftdruck Luftfeuchtigkeit
    00:00 +15°C° 0 mm 1 m/S 695 mmHg 94%
    01:00 +14°C° 0 mm 0 m/S 695 mmHg 95%
    02:00 +15°C° 0 mm 1 m/S 694 mmHg 95%
    03:00 +15°C° 0 mm 1 m/S 694 mmHg 95%
    04:00 +14°C° 0 mm 1 m/S 694 mmHg 96%
    05:00 +15°C° 0 mm 1 m/S 694 mmHg 94%
    06:00 +16°C° 0 mm 1 m/S 695 mmHg 93%
    07:00 +16°C° 0 mm 1 m/S 695 mmHg 91%
    08:00 +19°C° 0 mm 1 m/S 695 mmHg 84%
    09:00 +20°C° 0 mm 1 m/S 695 mmHg 77%
    10:00 +22°C° 0 mm 1 m/S 696 mmHg 69%
    11:00 +23°C° 0 mm 1 m/S 696 mmHg 65%
    12:00 +24°C° 0 mm 2 m/S 696 mmHg 61%
    13:00 +25°C° 0 mm 2 m/S 696 mmHg 57%
    14:00 +25°C° 0.1 mm 2 m/S 695 mmHg 58%
    15:00 +24°C° 0.1 mm 2 m/S 695 mmHg 59%
    16:00 +24°C° 0.1 mm 2 m/S 695 mmHg 60%
    17:00 +22°C° 0.1 mm 1 m/S 694 mmHg 68%
    18:00 +20°C° 0.1 mm 1 m/S 694 mmHg 76%
    19:00 +18°C° 0.1 mm 1 m/S 693 mmHg 84%
    20:00 +18°C° 0.1 mm 1 m/S 694 mmHg 85%
    21:00 +16°C° 0.1 mm 1 m/S 694 mmHg 86%
    22:00 +16°C° 0.1 mm 1 m/S 694 mmHg 87%
    23:00 +15°C° 0 mm 1 m/S 694 mmHg 88%
    Mehr zeigen